Year,Month,Day,Hour,Minute,Value (Times are PST for temperature in C)
2015,03,09,00,00,6.20
2015,03,09,00,01,6.30
2015,03,09,00,02,6.30
2015,03,09,00,03,6.30
2015,03,09,00,04,6.30
2015,03,09,00,05,6.20
2015,03,09,00,06,6.20
2015,03,09,00,07,6.20
2015,03,09,00,08,6.10
2015,03,09,00,09,6.00
2015,03,09,00,10,5.90
2015,03,09,00,11,5.90
2015,03,09,00,12,5.90
2015,03,09,00,13,5.80
2015,03,09,00,14,5.80
2015,03,09,00,15,5.80
2015,03,09,00,16,5.80
2015,03,09,00,17,5.80
2015,03,09,00,18,5.90
2015,03,09,00,19,6.00
2015,03,09,00,20,6.00
2015,03,09,00,21,6.10
2015,03,09,00,22,6.10
2015,03,09,00,23,6.20
2015,03,09,00,24,6.20
2015,03,09,00,25,6.20
2015,03,09,00,26,6.20
2015,03,09,00,27,6.30
2015,03,09,00,28,6.30
2015,03,09,00,29,6.30
2015,03,09,00,30,6.30
2015,03,09,00,31,6.30
2015,03,09,00,32,6.30
2015,03,09,00,33,6.30
2015,03,09,00,34,6.30
2015,03,09,00,35,6.30
2015,03,09,00,36,6.30
2015,03,09,00,37,6.30
2015,03,09,00,38,6.30
2015,03,09,00,39,6.20
2015,03,09,00,40,6.20
2015,03,09,00,41,6.20
2015,03,09,00,42,6.10
2015,03,09,00,43,6.10
2015,03,09,00,44,6.10
2015,03,09,00,45,6.10
2015,03,09,00,46,6.00
2015,03,09,00,47,5.90
2015,03,09,00,48,5.90
2015,03,09,00,49,5.80
2015,03,09,00,50,5.80
2015,03,09,00,51,5.80
2015,03,09,00,52,5.80
2015,03,09,00,53,5.80
2015,03,09,00,54,5.80
2015,03,09,00,55,5.80
2015,03,09,00,56,5.80
2015,03,09,00,57,5.80
2015,03,09,00,58,5.80
2015,03,09,00,59,5.80
2015,03,09,01,00,5.80
2015,03,09,01,01,5.80
2015,03,09,01,02,5.80
2015,03,09,01,03,5.80
2015,03,09,01,04,5.70
2015,03,09,01,05,5.70
2015,03,09,01,06,5.70
2015,03,09,01,07,5.70
2015,03,09,01,08,5.70
2015,03,09,01,09,5.60
2015,03,09,01,10,5.60
2015,03,09,01,11,5.60
2015,03,09,01,12,5.60
2015,03,09,01,13,5.50
2015,03,09,01,14,5.50
2015,03,09,01,15,5.60
2015,03,09,01,16,5.60
2015,03,09,01,17,5.60
2015,03,09,01,18,5.60
2015,03,09,01,19,5.60
2015,03,09,01,20,5.60
2015,03,09,01,21,5.70
2015,03,09,01,22,5.70
2015,03,09,01,23,5.70
2015,03,09,01,24,5.60
2015,03,09,01,25,5.70
2015,03,09,01,26,5.70
2015,03,09,01,27,5.70
2015,03,09,01,28,5.70
2015,03,09,01,29,5.60
2015,03,09,01,30,5.60
2015,03,09,01,31,5.60
2015,03,09,01,32,5.60
2015,03,09,01,33,5.60
2015,03,09,01,34,5.50
2015,03,09,01,35,5.40
2015,03,09,01,36,5.40
2015,03,09,01,37,5.40
2015,03,09,01,38,5.40
2015,03,09,01,39,5.40
2015,03,09,01,40,5.40
2015,03,09,01,41,5.40
2015,03,09,01,42,5.40
2015,03,09,01,43,5.40
2015,03,09,01,44,5.30
2015,03,09,01,45,5.40
2015,03,09,01,46,5.40
2015,03,09,01,47,5.40
2015,03,09,01,48,5.40
2015,03,09,01,49,5.50
2015,03,09,01,50,5.50
2015,03,09,01,51,5.50
2015,03,09,01,52,5.40
2015,03,09,01,53,5.40
2015,03,09,01,54,5.30
2015,03,09,01,55,5.30
2015,03,09,01,56,5.30
2015,03,09,01,57,5.30
2015,03,09,01,58,5.30
2015,03,09,01,59,5.30
2015,03,09,02,00,5.30
2015,03,09,02,01,5.20
2015,03,09,02,02,5.20
2015,03,09,02,03,5.20
2015,03,09,02,04,5.10
2015,03,09,02,05,5.10
2015,03,09,02,06,5.10
2015,03,09,02,07,5.10
2015,03,09,02,08,5.10
2015,03,09,02,09,5.00
2015,03,09,02,10,5.00
2015,03,09,02,11,5.00
2015,03,09,02,12,5.00
2015,03,09,02,13,5.10
2015,03,09,02,14,5.10
2015,03,09,02,15,5.10
2015,03,09,02,16,5.10
2015,03,09,02,17,5.10
2015,03,09,02,18,5.10
2015,03,09,02,19,5.10
2015,03,09,02,20,5.10
2015,03,09,02,21,5.10
2015,03,09,02,22,5.10
2015,03,09,02,23,5.10
2015,03,09,02,24,5.10
2015,03,09,02,25,5.10
2015,03,09,02,26,5.00
2015,03,09,02,27,5.00
2015,03,09,02,28,4.90
2015,03,09,02,29,4.90
2015,03,09,02,30,4.80
2015,03,09,02,31,4.80
2015,03,09,02,32,4.80
2015,03,09,02,33,4.80
2015,03,09,02,34,4.80
2015,03,09,02,35,4.80
2015,03,09,02,36,4.80
2015,03,09,02,37,4.80
2015,03,09,02,38,4.70
2015,03,09,02,39,4.70
2015,03,09,02,40,4.70
2015,03,09,02,41,4.70
2015,03,09,02,42,4.70
2015,03,09,02,43,4.70
2015,03,09,02,44,4.70
2015,03,09,02,45,4.70
2015,03,09,02,46,4.80
2015,03,09,02,47,4.80
2015,03,09,02,48,4.80
2015,03,09,02,49,4.90
2015,03,09,02,50,4.90
2015,03,09,02,51,4.90
2015,03,09,02,52,4.90
2015,03,09,02,53,4.80
2015,03,09,02,54,4.80
2015,03,09,02,55,4.80
2015,03,09,02,56,4.80
2015,03,09,02,57,4.80
2015,03,09,02,58,4.80
2015,03,09,02,59,4.90
2015,03,09,03,00,4.90
2015,03,09,03,01,4.90
2015,03,09,03,02,5.00
2015,03,09,03,03,5.00
2015,03,09,03,04,5.00
2015,03,09,03,05,5.00
2015,03,09,03,06,5.00
2015,03,09,03,07,5.00
2015,03,09,03,08,5.00
2015,03,09,03,09,4.90
2015,03,09,03,10,4.90
2015,03,09,03,11,4.90
2015,03,09,03,12,4.80
2015,03,09,03,13,4.80
2015,03,09,03,14,4.70
2015,03,09,03,15,4.70
2015,03,09,03,16,4.70
2015,03,09,03,17,4.70
2015,03,09,03,18,4.70
2015,03,09,03,19,4.70
2015,03,09,03,20,4.70
2015,03,09,03,21,4.70
2015,03,09,03,22,4.80
2015,03,09,03,23,4.80
2015,03,09,03,24,4.90
2015,03,09,03,25,5.00
2015,03,09,03,26,5.00
2015,03,09,03,27,5.00
2015,03,09,03,28,5.00
2015,03,09,03,29,4.90
2015,03,09,03,30,4.90
2015,03,09,03,31,4.90
2015,03,09,03,32,4.90
2015,03,09,03,33,4.90
2015,03,09,03,34,4.90
2015,03,09,03,35,4.90
2015,03,09,03,36,4.80
2015,03,09,03,37,4.80
2015,03,09,03,38,4.80
2015,03,09,03,39,4.70
2015,03,09,03,40,4.60
2015,03,09,03,41,4.60
2015,03,09,03,42,4.60
2015,03,09,03,43,4.60
2015,03,09,03,44,4.60
2015,03,09,03,45,4.60
2015,03,09,03,46,4.60
2015,03,09,03,47,4.70
2015,03,09,03,48,4.70
2015,03,09,03,49,4.70
2015,03,09,03,50,4.70
2015,03,09,03,51,4.70
2015,03,09,03,52,4.70
2015,03,09,03,53,4.70
2015,03,09,03,54,4.70
2015,03,09,03,55,4.70
2015,03,09,03,56,4.70
2015,03,09,03,57,4.70
2015,03,09,03,58,4.70
2015,03,09,03,59,4.70
2015,03,09,04,00,4.70
2015,03,09,04,01,4.70
2015,03,09,04,02,4.80
2015,03,09,04,03,4.80
2015,03,09,04,04,4.80
2015,03,09,04,05,4.70
2015,03,09,04,06,4.70
2015,03,09,04,07,4.70
2015,03,09,04,08,4.70
2015,03,09,04,09,4.70
2015,03,09,04,10,4.70
2015,03,09,04,11,4.70
2015,03,09,04,12,4.60
2015,03,09,04,13,4.60
2015,03,09,04,14,4.60
2015,03,09,04,15,4.50
2015,03,09,04,16,4.50
2015,03,09,04,17,4.50
2015,03,09,04,18,4.40
2015,03,09,04,19,4.40
2015,03,09,04,20,4.40
2015,03,09,04,21,4.30
2015,03,09,04,22,4.30
2015,03,09,04,23,4.30
2015,03,09,04,24,4.40
2015,03,09,04,25,4.40
2015,03,09,04,26,4.50
2015,03,09,04,27,4.60
2015,03,09,04,28,4.60
2015,03,09,04,29,4.60
2015,03,09,04,30,4.60
2015,03,09,04,31,4.70
2015,03,09,04,32,4.70
2015,03,09,04,33,4.70
2015,03,09,04,34,4.70
2015,03,09,04,35,4.70
2015,03,09,04,36,4.70
2015,03,09,04,37,4.70
2015,03,09,04,38,4.70
2015,03,09,04,39,4.70
2015,03,09,04,40,4.70
2015,03,09,04,41,4.70
2015,03,09,04,42,4.60
2015,03,09,04,43,4.60
2015,03,09,04,44,4.60
2015,03,09,04,45,4.50
2015,03,09,04,46,4.50
2015,03,09,04,47,4.40
2015,03,09,04,48,4.40
2015,03,09,04,49,4.30
2015,03,09,04,50,4.40
2015,03,09,04,51,4.40
2015,03,09,04,52,4.40
2015,03,09,04,53,4.40
2015,03,09,04,54,4.40
2015,03,09,04,55,4.30
2015,03,09,04,56,4.30
2015,03,09,04,57,4.30
2015,03,09,04,58,4.30
2015,03,09,04,59,4.30
2015,03,09,05,00,4.20
2015,03,09,05,01,4.20
2015,03,09,05,02,4.20
2015,03,09,05,03,4.10
2015,03,09,05,04,4.10
2015,03,09,05,05,4.10
2015,03,09,05,06,4.00
2015,03,09,05,07,4.00
2015,03,09,05,08,4.00
2015,03,09,05,09,4.00
2015,03,09,05,10,3.90
2015,03,09,05,11,3.90
2015,03,09,05,12,3.80
2015,03,09,05,13,3.70
2015,03,09,05,14,3.60
2015,03,09,05,15,3.50
2015,03,09,05,16,3.50
2015,03,09,05,17,3.40
2015,03,09,05,18,3.30
2015,03,09,05,19,3.30
2015,03,09,05,20,3.30
2015,03,09,05,21,3.20
2015,03,09,05,22,3.20
2015,03,09,05,23,3.20
2015,03,09,05,24,3.20
2015,03,09,05,25,3.20
2015,03,09,05,26,3.20
2015,03,09,05,27,3.20
2015,03,09,05,28,3.20
2015,03,09,05,29,3.20
2015,03,09,05,30,3.20
2015,03,09,05,31,3.20
2015,03,09,05,32,3.30
2015,03,09,05,33,3.30
2015,03,09,05,34,3.30
2015,03,09,05,35,3.30
2015,03,09,05,36,3.30
2015,03,09,05,37,3.40
2015,03,09,05,38,3.40
2015,03,09,05,39,3.40
2015,03,09,05,40,3.40
2015,03,09,05,41,3.40
2015,03,09,05,42,3.40
2015,03,09,05,43,3.40
2015,03,09,05,44,3.40
2015,03,09,05,45,3.40
2015,03,09,05,46,3.40
2015,03,09,05,47,3.40
2015,03,09,05,48,3.40
2015,03,09,05,49,3.30
2015,03,09,05,50,3.30
2015,03,09,05,51,3.20
2015,03,09,05,52,3.20
2015,03,09,05,53,3.20
2015,03,09,05,54,3.30
2015,03,09,05,55,3.30
2015,03,09,05,56,3.30
2015,03,09,05,57,3.30
2015,03,09,05,58,3.30
2015,03,09,05,59,3.30
2015,03,09,06,00,3.30
2015,03,09,06,01,3.30
2015,03,09,06,02,3.30
2015,03,09,06,03,3.30
2015,03,09,06,04,3.20
2015,03,09,06,05,3.20
2015,03,09,06,06,3.20
2015,03,09,06,07,3.20
2015,03,09,06,08,3.20
2015,03,09,06,09,3.20
2015,03,09,06,10,3.20
2015,03,09,06,11,3.20
2015,03,09,06,12,3.20
2015,03,09,06,13,3.20
2015,03,09,06,14,3.20
2015,03,09,06,15,3.20
2015,03,09,06,16,3.20
2015,03,09,06,17,3.20
2015,03,09,06,18,3.20
2015,03,09,06,19,3.30
2015,03,09,06,20,3.30
2015,03,09,06,21,3.30
2015,03,09,06,22,3.40
2015,03,09,06,23,3.40
2015,03,09,06,24,3.40
2015,03,09,06,25,3.40
2015,03,09,06,26,3.50
2015,03,09,06,27,3.50
2015,03,09,06,28,3.50
2015,03,09,06,29,3.50
2015,03,09,06,30,3.60
2015,03,09,06,31,3.50
2015,03,09,06,32,3.50
2015,03,09,06,33,3.50
2015,03,09,06,34,3.50
2015,03,09,06,35,3.50
2015,03,09,06,36,3.50
2015,03,09,06,37,3.50
2015,03,09,06,38,3.50
2015,03,09,06,39,3.50
2015,03,09,06,40,3.40
2015,03,09,06,41,3.40
2015,03,09,06,42,3.40
2015,03,09,06,43,3.40
2015,03,09,06,44,3.40
2015,03,09,06,45,3.50
2015,03,09,06,46,3.50
2015,03,09,06,47,3.50
2015,03,09,06,48,3.60
2015,03,09,06,49,3.60
2015,03,09,06,50,3.60
2015,03,09,06,51,3.60
2015,03,09,06,52,3.70
2015,03,09,06,53,3.70
2015,03,09,06,54,3.70
2015,03,09,06,55,3.70
2015,03,09,06,56,3.80
2015,03,09,06,57,3.80
2015,03,09,06,58,3.80
2015,03,09,06,59,3.80
2015,03,09,07,00,3.80
2015,03,09,07,01,3.90
2015,03,09,07,02,3.90
2015,03,09,07,03,4.00
2015,03,09,07,04,4.10
2015,03,09,07,05,4.10
2015,03,09,07,06,4.10
2015,03,09,07,07,4.10
2015,03,09,07,08,4.10
2015,03,09,07,09,4.00
2015,03,09,07,10,4.00
2015,03,09,07,11,3.90
2015,03,09,07,12,3.90
2015,03,09,07,13,3.90
2015,03,09,07,14,3.90
2015,03,09,07,15,3.90
2015,03,09,07,16,4.00
2015,03,09,07,17,4.10
2015,03,09,07,18,4.10
2015,03,09,07,19,4.20
2015,03,09,07,20,4.20
2015,03,09,07,21,4.20
2015,03,09,07,22,4.20
2015,03,09,07,23,4.20
2015,03,09,07,24,4.20
2015,03,09,07,25,4.30
2015,03,09,07,26,4.30
2015,03,09,07,27,4.30
2015,03,09,07,28,4.30
2015,03,09,07,29,4.30
2015,03,09,07,30,4.30
2015,03,09,07,31,4.30
2015,03,09,07,32,4.40
2015,03,09,07,33,4.40
2015,03,09,07,34,4.40
2015,03,09,07,35,4.40
2015,03,09,07,36,4.40
2015,03,09,07,37,4.50
2015,03,09,07,38,4.60
2015,03,09,07,39,4.60
2015,03,09,07,40,4.70
2015,03,09,07,41,4.70
2015,03,09,07,42,4.70
2015,03,09,07,43,4.70
2015,03,09,07,44,4.70
2015,03,09,07,45,4.70
2015,03,09,07,46,4.70
2015,03,09,07,47,4.60
2015,03,09,07,48,4.60
2015,03,09,07,49,4.60
2015,03,09,07,50,4.60
2015,03,09,07,51,4.60
2015,03,09,07,52,4.60
2015,03,09,07,53,4.70
2015,03,09,07,54,4.70
2015,03,09,07,55,4.70
2015,03,09,07,56,4.70
2015,03,09,07,57,4.70
2015,03,09,07,58,4.80
2015,03,09,07,59,4.80
2015,03,09,08,00,4.80
2015,03,09,08,01,4.80
2015,03,09,08,02,4.90
2015,03,09,08,03,4.90
2015,03,09,08,04,5.00
2015,03,09,08,05,5.00
2015,03,09,08,06,5.00
2015,03,09,08,07,5.10
2015,03,09,08,08,5.10
2015,03,09,08,09,5.10
2015,03,09,08,10,5.10
2015,03,09,08,11,5.10
2015,03,09,08,12,5.10
2015,03,09,08,13,5.10
2015,03,09,08,14,5.10
2015,03,09,08,15,5.10
2015,03,09,08,16,5.10
2015,03,09,08,17,5.10
2015,03,09,08,18,5.10
2015,03,09,08,19,5.10
2015,03,09,08,20,5.10
2015,03,09,08,21,5.10
2015,03,09,08,22,5.20
2015,03,09,08,23,5.20
2015,03,09,08,24,5.20
2015,03,09,08,25,5.20
2015,03,09,08,26,5.20
2015,03,09,08,27,5.20
2015,03,09,08,28,5.20
2015,03,09,08,29,5.20
2015,03,09,08,30,5.20
2015,03,09,08,31,5.30
2015,03,09,08,32,5.30
2015,03,09,08,33,5.30
2015,03,09,08,34,5.30
2015,03,09,08,35,5.30
2015,03,09,08,36,5.30
2015,03,09,08,37,5.40
2015,03,09,08,38,5.40
2015,03,09,08,39,5.40
2015,03,09,08,40,5.40
2015,03,09,08,41,5.50
2015,03,09,08,42,5.50
2015,03,09,08,43,5.50
2015,03,09,08,44,5.60
2015,03,09,08,45,5.60
2015,03,09,08,46,5.60
2015,03,09,08,47,5.60
2015,03,09,08,48,5.60
2015,03,09,08,49,5.60
2015,03,09,08,50,5.60
2015,03,09,08,51,5.60
2015,03,09,08,52,5.70
2015,03,09,08,53,5.70
2015,03,09,08,54,5.70
2015,03,09,08,55,5.70
2015,03,09,08,56,5.80
2015,03,09,08,57,5.80
2015,03,09,08,58,5.80
2015,03,09,08,59,5.80
2015,03,09,09,00,5.90
2015,03,09,09,01,5.90
2015,03,09,09,02,5.90
2015,03,09,09,03,5.90
2015,03,09,09,04,5.90
2015,03,09,09,05,6.00
2015,03,09,09,06,6.00
2015,03,09,09,07,6.00
2015,03,09,09,08,6.10
2015,03,09,09,09,6.10
2015,03,09,09,10,6.10
2015,03,09,09,11,6.20
2015,03,09,09,12,6.20
2015,03,09,09,13,6.20
2015,03,09,09,14,6.30
2015,03,09,09,15,6.30
2015,03,09,09,16,6.30
2015,03,09,09,17,6.30
2015,03,09,09,18,6.30
2015,03,09,09,19,6.30
2015,03,09,09,20,6.30
2015,03,09,09,21,6.30
2015,03,09,09,22,6.30
2015,03,09,09,23,6.30
2015,03,09,09,24,6.30
2015,03,09,09,25,6.30
2015,03,09,09,26,6.30
2015,03,09,09,27,6.30
2015,03,09,09,28,6.20
2015,03,09,09,29,6.30
2015,03,09,09,30,6.20
2015,03,09,09,31,6.20
2015,03,09,09,32,6.20
2015,03,09,09,33,6.20
2015,03,09,09,34,6.20
2015,03,09,09,35,6.20
2015,03,09,09,36,6.20
2015,03,09,09,37,6.20
2015,03,09,09,38,6.20
2015,03,09,09,39,6.20
2015,03,09,09,40,6.20
2015,03,09,09,41,6.10
2015,03,09,09,42,6.10
2015,03,09,09,43,6.10
2015,03,09,09,44,6.10
2015,03,09,09,45,6.10
2015,03,09,09,46,6.10
2015,03,09,09,47,6.00
2015,03,09,09,48,6.00
2015,03,09,09,49,6.00
2015,03,09,09,50,6.00
2015,03,09,09,51,6.00
2015,03,09,09,52,6.00
2015,03,09,09,53,6.10
2015,03,09,09,54,6.10
2015,03,09,09,55,6.10
2015,03,09,09,56,6.10
2015,03,09,09,57,6.10
2015,03,09,09,58,6.10
2015,03,09,09,59,6.10
2015,03,09,10,00,6.10
2015,03,09,10,01,6.10
2015,03,09,10,02,6.10
2015,03,09,10,03,6.10
2015,03,09,10,04,6.20
2015,03,09,10,05,6.20
2015,03,09,10,06,6.20
2015,03,09,10,07,6.20
2015,03,09,10,08,6.20
2015,03,09,10,09,6.20
2015,03,09,10,10,6.20
2015,03,09,10,11,6.20
2015,03,09,10,12,6.20
2015,03,09,10,13,6.20
2015,03,09,10,14,6.20
2015,03,09,10,15,6.20
2015,03,09,10,16,6.30
2015,03,09,10,17,6.30
2015,03,09,10,18,6.30
2015,03,09,10,19,6.30
2015,03,09,10,20,6.30
2015,03,09,10,21,6.30
2015,03,09,10,22,6.40
2015,03,09,10,23,6.40
2015,03,09,10,24,6.40
2015,03,09,10,25,6.40
2015,03,09,10,26,6.40
2015,03,09,10,27,6.40
2015,03,09,10,28,6.50
2015,03,09,10,29,6.50
2015,03,09,10,30,6.50
2015,03,09,10,31,6.50
2015,03,09,10,32,6.60
2015,03,09,10,33,6.60
2015,03,09,10,34,6.60
2015,03,09,10,35,6.60
2015,03,09,10,36,6.70
2015,03,09,10,37,6.70
2015,03,09,10,38,6.70
2015,03,09,10,39,6.70
2015,03,09,10,40,6.70
2015,03,09,10,41,6.70
2015,03,09,10,42,6.70
2015,03,09,10,43,6.70
2015,03,09,10,44,6.70
2015,03,09,10,45,6.70
2015,03,09,10,46,6.70
2015,03,09,10,47,6.70
2015,03,09,10,48,6.70
2015,03,09,10,49,6.70
2015,03,09,10,50,6.70
2015,03,09,10,51,6.70
2015,03,09,10,52,6.70
2015,03,09,10,53,6.70
2015,03,09,10,54,6.70
2015,03,09,10,55,6.70
2015,03,09,10,56,6.70
2015,03,09,10,57,6.70
2015,03,09,10,58,6.70
2015,03,09,10,59,6.70
2015,03,09,11,00,6.70
2015,03,09,11,01,6.70
2015,03,09,11,02,6.70
2015,03,09,11,03,6.70
2015,03,09,11,04,6.70
2015,03,09,11,05,6.70
2015,03,09,11,06,6.70
2015,03,09,11,07,6.60
2015,03,09,11,08,6.60
2015,03,09,11,09,6.60
2015,03,09,11,10,6.50
2015,03,09,11,11,6.50
2015,03,09,11,12,6.50
2015,03,09,11,13,6.60
2015,03,09,11,14,6.60
2015,03,09,11,15,6.50
2015,03,09,11,16,6.50
2015,03,09,11,17,6.50
2015,03,09,11,18,6.50
2015,03,09,11,19,6.60
2015,03,09,11,20,6.60
2015,03,09,11,21,6.60
2015,03,09,11,22,6.60
2015,03,09,11,23,6.60
2015,03,09,11,24,6.60
2015,03,09,11,25,6.50
2015,03,09,11,26,6.50
2015,03,09,11,27,6.50
2015,03,09,11,28,6.50
2015,03,09,11,29,6.50
2015,03,09,11,30,6.50
2015,03,09,11,31,6.60
2015,03,09,11,32,6.60
2015,03,09,11,33,6.60
2015,03,09,11,34,6.60
2015,03,09,11,35,6.60
2015,03,09,11,36,6.60
2015,03,09,11,37,6.60
2015,03,09,11,38,6.60
2015,03,09,11,39,6.60
2015,03,09,11,40,6.60
2015,03,09,11,41,6.50
2015,03,09,11,42,6.50
2015,03,09,11,43,6.60
2015,03,09,11,44,6.60
2015,03,09,11,45,6.60
2015,03,09,11,46,6.60
2015,03,09,11,47,6.60
2015,03,09,11,48,6.60
2015,03,09,11,49,6.50
2015,03,09,11,50,6.50
2015,03,09,11,51,6.60
2015,03,09,11,52,6.60
2015,03,09,11,53,6.60
2015,03,09,11,54,6.60
2015,03,09,11,55,6.60
2015,03,09,11,56,6.70
2015,03,09,11,57,6.70
2015,03,09,11,58,6.70
2015,03,09,11,59,6.70
2015,03,09,12,00,6.70
2015,03,09,12,01,6.70
2015,03,09,12,02,6.70
2015,03,09,12,03,6.70
2015,03,09,12,04,6.70
2015,03,09,12,05,6.70
2015,03,09,12,06,6.70
2015,03,09,12,07,6.70
2015,03,09,12,08,6.70
2015,03,09,12,09,6.70
2015,03,09,12,10,6.70
2015,03,09,12,11,6.70
2015,03,09,12,12,6.80
2015,03,09,12,13,6.80
2015,03,09,12,14,6.80
2015,03,09,12,15,6.80
2015,03,09,12,16,6.90
2015,03,09,12,17,6.90
2015,03,09,12,18,6.90
2015,03,09,12,19,7.00
2015,03,09,12,20,7.00
2015,03,09,12,21,7.10
2015,03,09,12,22,7.10
2015,03,09,12,23,7.10
2015,03,09,12,24,7.10
2015,03,09,12,25,7.10
2015,03,09,12,26,7.10
2015,03,09,12,27,7.10
2015,03,09,12,28,7.00
2015,03,09,12,29,6.90
2015,03,09,12,30,6.90
2015,03,09,12,31,6.90
2015,03,09,12,32,7.00
2015,03,09,12,33,7.00
2015,03,09,12,34,7.10
2015,03,09,12,35,7.10
2015,03,09,12,36,7.10
2015,03,09,12,37,7.10
2015,03,09,12,38,7.10
2015,03,09,12,39,7.00
2015,03,09,12,40,7.00
2015,03,09,12,41,7.00
2015,03,09,12,42,7.00
2015,03,09,12,43,6.90
2015,03,09,12,44,6.90
2015,03,09,12,45,6.90
2015,03,09,12,46,6.90
2015,03,09,12,47,6.90
2015,03,09,12,48,6.90
2015,03,09,12,49,7.00
2015,03,09,12,50,7.00
2015,03,09,12,51,7.10
2015,03,09,12,52,7.10
2015,03,09,12,53,7.20
2015,03,09,12,54,7.20
2015,03,09,12,55,7.20
2015,03,09,12,56,7.30
2015,03,09,12,57,7.30
2015,03,09,12,58,7.30
2015,03,09,12,59,7.30
2015,03,09,13,00,7.30
2015,03,09,13,01,7.30
2015,03,09,13,02,7.30
2015,03,09,13,03,7.30
2015,03,09,13,04,7.30
2015,03,09,13,05,7.30
2015,03,09,13,06,7.30
2015,03,09,13,07,7.30
2015,03,09,13,08,7.30
2015,03,09,13,09,7.30
2015,03,09,13,10,7.30
2015,03,09,13,11,7.30
2015,03,09,13,12,7.30
2015,03,09,13,13,7.40
2015,03,09,13,14,7.40
2015,03,09,13,15,7.40
2015,03,09,13,16,7.40
2015,03,09,13,17,7.40
2015,03,09,13,18,7.40
2015,03,09,13,19,7.40
2015,03,09,13,20,7.40
2015,03,09,13,21,7.40
2015,03,09,13,22,7.40
2015,03,09,13,23,7.50
2015,03,09,13,24,7.50
2015,03,09,13,25,7.50
2015,03,09,13,26,7.50
2015,03,09,13,27,7.50
2015,03,09,13,28,7.60
2015,03,09,13,29,7.60
2015,03,09,13,30,7.60
2015,03,09,13,31,7.60
2015,03,09,13,32,7.60
2015,03,09,13,33,7.60
2015,03,09,13,34,7.60
2015,03,09,13,35,7.70
2015,03,09,13,36,7.70
2015,03,09,13,37,7.80
2015,03,09,13,38,7.80
2015,03,09,13,39,7.80
2015,03,09,13,40,7.80
2015,03,09,13,41,7.90
2015,03,09,13,42,8.00
2015,03,09,13,43,8.10
2015,03,09,13,44,8.20
2015,03,09,13,45,8.20
2015,03,09,13,46,8.30
2015,03,09,13,47,8.30
2015,03,09,13,48,8.30
2015,03,09,13,49,8.30
2015,03,09,13,50,8.30
2015,03,09,13,51,8.30
2015,03,09,13,52,8.30
2015,03,09,13,53,8.20
2015,03,09,13,54,8.20
2015,03,09,13,55,8.20
2015,03,09,13,56,8.20
2015,03,09,13,57,8.20
2015,03,09,13,58,8.30
2015,03,09,13,59,8.30
2015,03,09,14,00,8.30
2015,03,09,14,01,8.40
2015,03,09,14,02,8.50
2015,03,09,14,03,8.60
2015,03,09,14,04,8.70
2015,03,09,14,05,8.70
2015,03,09,14,06,8.80
2015,03,09,14,07,8.90
2015,03,09,14,08,8.90
2015,03,09,14,09,9.00
2015,03,09,14,10,9.00
2015,03,09,14,11,9.00
2015,03,09,14,12,8.90
2015,03,09,14,13,8.90
2015,03,09,14,14,8.90
2015,03,09,14,15,8.90
2015,03,09,14,16,9.00
2015,03,09,14,17,9.10
2015,03,09,14,18,9.20
2015,03,09,14,19,9.30
2015,03,09,14,20,9.30
2015,03,09,14,21,9.40
2015,03,09,14,22,9.50
2015,03,09,14,23,9.50
2015,03,09,14,24,9.50
2015,03,09,14,25,9.50
2015,03,09,14,26,9.60
2015,03,09,14,27,9.60
2015,03,09,14,28,9.60
2015,03,09,14,29,9.60
2015,03,09,14,30,9.60
2015,03,09,14,31,9.60
2015,03,09,14,32,9.60
2015,03,09,14,33,9.70
2015,03,09,14,34,9.70
2015,03,09,14,35,9.70
2015,03,09,14,36,9.80
2015,03,09,14,37,9.80
2015,03,09,14,38,9.80
2015,03,09,14,39,9.90
2015,03,09,14,40,10.00
2015,03,09,14,41,10.00
2015,03,09,14,42,10.00
2015,03,09,14,43,10.00
2015,03,09,14,44,10.00
2015,03,09,14,45,10.10
2015,03,09,14,46,10.20
2015,03,09,14,47,10.20
2015,03,09,14,48,10.20
2015,03,09,14,49,10.20
2015,03,09,14,50,10.20
2015,03,09,14,51,10.30
2015,03,09,14,52,10.30
2015,03,09,14,53,10.30
2015,03,09,14,54,10.30
2015,03,09,14,55,10.40
2015,03,09,14,56,10.50
2015,03,09,14,57,10.50
2015,03,09,14,58,10.60
2015,03,09,14,59,10.60
2015,03,09,15,00,10.60
2015,03,09,15,01,10.60
2015,03,09,15,02,10.60
2015,03,09,15,03,10.60
2015,03,09,15,04,10.70
2015,03,09,15,05,10.60
2015,03,09,15,06,10.70
2015,03,09,15,07,10.80
2015,03,09,15,08,10.80
2015,03,09,15,09,10.80
2015,03,09,15,10,10.80
2015,03,09,15,11,10.80
2015,03,09,15,12,10.70
2015,03,09,15,13,10.70
2015,03,09,15,14,10.70
2015,03,09,15,15,10.60
2015,03,09,15,16,10.60
2015,03,09,15,17,10.60
2015,03,09,15,18,10.50
2015,03,09,15,19,10.50
2015,03,09,15,20,10.60
2015,03,09,15,21,10.70
2015,03,09,15,22,10.70
2015,03,09,15,23,10.80
2015,03,09,15,24,10.80
2015,03,09,15,25,10.80
2015,03,09,15,26,10.90
2015,03,09,15,27,10.90
2015,03,09,15,28,11.00
2015,03,09,15,29,11.10
2015,03,09,15,30,11.10
2015,03,09,15,31,11.20
2015,03,09,15,32,11.30
2015,03,09,15,33,11.40
2015,03,09,15,34,11.50
2015,03,09,15,35,11.60
2015,03,09,15,36,11.60
2015,03,09,15,37,11.70
2015,03,09,15,38,11.80
2015,03,09,15,39,11.80
2015,03,09,15,40,11.90
2015,03,09,15,41,11.90
2015,03,09,15,42,12.00
2015,03,09,15,43,12.00
2015,03,09,15,44,12.10
2015,03,09,15,45,12.20
2015,03,09,15,46,12.30
2015,03,09,15,47,12.30
2015,03,09,15,48,12.40
2015,03,09,15,49,12.40
2015,03,09,15,50,12.50
2015,03,09,15,51,12.60
2015,03,09,15,52,12.70
2015,03,09,15,53,12.70
2015,03,09,15,54,12.70
2015,03,09,15,55,12.70
2015,03,09,15,56,12.70
2015,03,09,15,57,12.70
2015,03,09,15,58,12.60
2015,03,09,15,59,12.60
2015,03,09,16,00,12.70
2015,03,09,16,01,12.80
2015,03,09,16,02,12.80
2015,03,09,16,03,12.80
2015,03,09,16,04,12.70
2015,03,09,16,05,12.70
2015,03,09,16,06,12.60
2015,03,09,16,07,12.60
2015,03,09,16,08,12.60
2015,03,09,16,09,12.60
2015,03,09,16,10,12.60
2015,03,09,16,11,12.60
2015,03,09,16,12,12.70
2015,03,09,16,13,12.70
2015,03,09,16,14,12.80
2015,03,09,16,15,12.80
2015,03,09,16,16,12.80
2015,03,09,16,17,12.90
2015,03,09,16,18,12.90
2015,03,09,16,19,12.90
2015,03,09,16,20,13.10
2015,03,09,16,21,13.20
2015,03,09,16,22,13.30
2015,03,09,16,23,13.30
2015,03,09,16,24,13.40
2015,03,09,16,25,13.40
2015,03,09,16,26,13.40
2015,03,09,16,27,13.40
2015,03,09,16,28,13.30
2015,03,09,16,29,13.20
2015,03,09,16,30,13.10
2015,03,09,16,31,13.00
2015,03,09,16,32,13.00
2015,03,09,16,33,12.90
2015,03,09,16,34,12.80
2015,03,09,16,35,12.70
2015,03,09,16,36,12.70
2015,03,09,16,37,12.70
2015,03,09,16,38,12.70
2015,03,09,16,39,12.70
2015,03,09,16,40,12.80
2015,03,09,16,41,12.80
2015,03,09,16,42,12.80
2015,03,09,16,43,12.80
2015,03,09,16,44,12.80
2015,03,09,16,45,12.80
2015,03,09,16,46,12.80
2015,03,09,16,47,12.90
2015,03,09,16,48,12.90
2015,03,09,16,49,12.90
2015,03,09,16,50,13.00
2015,03,09,16,51,13.00
2015,03,09,16,52,13.00
2015,03,09,16,53,13.00
2015,03,09,16,54,13.00
2015,03,09,16,55,13.00
2015,03,09,16,56,13.00
2015,03,09,16,57,13.00
2015,03,09,16,58,13.00
2015,03,09,16,59,13.00
2015,03,09,17,00,13.00
2015,03,09,17,01,13.10
2015,03,09,17,02,13.10
2015,03,09,17,03,13.20
2015,03,09,17,04,13.20
2015,03,09,17,05,13.20
2015,03,09,17,06,13.10
2015,03,09,17,07,13.00
2015,03,09,17,08,13.00
2015,03,09,17,09,13.00
2015,03,09,17,10,13.10
2015,03,09,17,11,13.10
2015,03,09,17,12,13.00
2015,03,09,17,13,13.00
2015,03,09,17,14,12.90
2015,03,09,17,15,12.90
2015,03,09,17,16,12.80
2015,03,09,17,17,12.80
2015,03,09,17,18,12.70
2015,03,09,17,19,12.70
2015,03,09,17,20,12.70
2015,03,09,17,21,12.70
2015,03,09,17,22,12.70
2015,03,09,17,23,12.70
2015,03,09,17,24,12.70
2015,03,09,17,25,12.70
2015,03,09,17,26,12.80
2015,03,09,17,27,12.80
2015,03,09,17,28,12.80
2015,03,09,17,29,12.90
2015,03,09,17,30,12.90
2015,03,09,17,31,12.90
2015,03,09,17,32,12.80
2015,03,09,17,33,12.80
2015,03,09,17,34,12.70
2015,03,09,17,35,12.70
2015,03,09,17,36,12.70
2015,03,09,17,37,12.70
2015,03,09,17,38,12.70
2015,03,09,17,39,12.60
2015,03,09,17,40,12.60
2015,03,09,17,41,12.60
2015,03,09,17,42,12.60
2015,03,09,17,43,12.60
2015,03,09,17,44,12.60
2015,03,09,17,45,12.60
2015,03,09,17,46,12.60
2015,03,09,17,47,12.60
2015,03,09,17,48,12.60
2015,03,09,17,49,12.60
2015,03,09,17,50,12.60
2015,03,09,17,51,12.60
2015,03,09,17,52,12.60
2015,03,09,17,53,12.60
2015,03,09,17,54,12.60
2015,03,09,17,55,12.60
2015,03,09,17,56,12.50
2015,03,09,17,57,12.50